AAL201 KFLG-KPHX

Flight info

Callsign AAL201
Flight time 0h 28m
Altitude 15000
Route FLG1 OATES DRK MAIER BRUSR1
Aircraft A319/M-SDE3FGHIRWY/LB1

Departure

Time 2026-04-23 00:11
Airport Flagstaff Pulliam Airport (KFLG)

Arrival

Time 2026-04-23 00:40
Airport Phoenix Sky Harbor International Airport (KPHX)
Time Latitude Longitude Altitude Speed Heading
2026-04-22 23:31 35.13863 -111.67396 7017 ft 0 kts 348°
2026-04-23 00:03 35.13859 -111.67395 7013 ft 3 kts 348°
2026-04-23 00:03 35.13840 -111.67390 7018 ft 3 kts 356°
2026-04-23 00:03 35.13822 -111.67394 7016 ft 3 kts 39°
2026-04-23 00:04 35.13808 -111.67408 7017 ft 1 kts 39°
2026-04-23 00:04 35.13807 -111.67408 7013 ft 0 kts 39°
2026-04-23 00:06 35.13808 -111.67407 7018 ft 1 kts 39°
2026-04-23 00:07 35.13816 -111.67396 7016 ft 4 kts 52°
2026-04-23 00:07 35.13826 -111.67346 7013 ft 9 kts 80°
2026-04-23 00:07 35.13870 -111.67275 7014 ft 13 kts 41°
2026-04-23 00:07 35.13948 -111.67191 7014 ft 16 kts 41°
2026-04-23 00:08 35.14038 -111.67095 7012 ft 18 kts 40°
2026-04-23 00:08 35.14134 -111.66995 7011 ft 19 kts 41°
2026-04-23 00:08 35.14237 -111.66885 7012 ft 20 kts 41°
2026-04-23 00:08 35.14346 -111.66769 7009 ft 21 kts 41°
2026-04-23 00:09 35.14461 -111.66647 7009 ft 23 kts 41°
2026-04-23 00:09 35.14583 -111.66517 7001 ft 24 kts 41°
2026-04-23 00:09 35.14710 -111.66381 7007 ft 25 kts 41°
2026-04-23 00:09 35.14844 -111.66240 6998 ft 26 kts 41°
2026-04-23 00:10 35.14970 -111.66107 6998 ft 15 kts 40°
2026-04-23 00:10 35.14978 -111.66024 7003 ft 12 kts 129°
2026-04-23 00:10 35.14909 -111.65989 6998 ft 12 kts 205°
2026-04-23 00:10 35.14845 -111.66058 7000 ft 14 kts 221°
2026-04-23 00:11 35.14672 -111.66244 6994 ft 68 kts 221°
2026-04-23 00:11 35.14118 -111.66836 7015 ft 140 kts 220°
2026-04-23 00:11 35.13284 -111.67678 7585 ft 158 kts 223°
2026-04-23 00:11 35.12342 -111.68417 8509 ft 167 kts 210°
2026-04-23 00:12 35.11218 -111.68941 9103 ft 182 kts 204°
2026-04-23 00:12 35.09953 -111.69454 9451 ft 202 kts 203°
2026-04-23 00:12 35.08506 -111.69897 9742 ft 227 kts 195°
2026-04-23 00:12 35.06834 -111.69989 10103 ft 256 kts 184°
2026-04-23 00:13 35.04960 -111.69931 10411 ft 281 kts 185°
2026-04-23 00:13 35.02938 -111.69944 10703 ft 306 kts 187°
2026-04-23 00:13 35.00749 -111.70017 11302 ft 317 kts 187°
2026-04-23 00:13 34.98517 -111.70162 12047 ft 324 kts 189°
2026-04-23 00:14 34.96260 -111.70370 12857 ft 328 kts 189°
2026-04-23 00:14 34.93957 -111.70575 13683 ft 334 kts 189°
2026-04-23 00:14 34.91649 -111.70914 14413 ft 334 kts 199°
2026-04-23 00:14 34.89483 -111.71904 14799 ft 331 kts 213°
2026-04-23 00:15 34.87649 -111.73549 14919 ft 325 kts 228°
2026-04-23 00:15 34.86292 -111.75767 15408 ft 331 kts 243°
2026-04-23 00:15 34.85448 -111.78376 16180 ft 332 kts 255°
2026-04-23 00:15 34.84853 -111.81107 16745 ft 334 kts 255°
2026-04-23 00:16 34.84259 -111.83839 16915 ft 333 kts 255°
2026-04-23 00:16 34.83669 -111.86559 16950 ft 333 kts 255°
2026-04-23 00:16 34.83077 -111.89294 16952 ft 333 kts 255°
2026-04-23 00:16 34.82496 -111.91979 16943 ft 333 kts 255°
2026-04-23 00:17 34.81902 -111.94738 16935 ft 333 kts 255°
2026-04-23 00:17 34.81316 -111.97462 16923 ft 333 kts 255°
2026-04-23 00:17 34.80726 -112.00184 16912 ft 333 kts 255°
2026-04-23 00:17 34.80139 -112.02884 16901 ft 333 kts 255°
2026-04-23 00:18 34.79382 -112.05572 16886 ft 334 kts 243°
2026-04-23 00:18 34.77974 -112.07826 16878 ft 339 kts 225°
2026-04-23 00:18 34.75957 -112.09361 16866 ft 348 kts 207°
2026-04-23 00:18 34.73706 -112.10375 16867 ft 349 kts 205°
2026-04-23 00:19 34.71390 -112.11383 16878 ft 350 kts 205°
2026-04-23 00:19 34.69866 -112.12042 16881 ft 350 kts 205°
2026-04-23 00:19 34.67570 -112.13036 16887 ft 350 kts 205°
2026-04-23 00:19 34.65274 -112.14034 16893 ft 350 kts 205°
2026-04-23 00:20 34.62983 -112.15032 16897 ft 350 kts 205°
2026-04-23 00:20 34.60685 -112.16036 16899 ft 350 kts 205°
2026-04-23 00:20 34.58394 -112.17039 16902 ft 350 kts 205°
2026-04-23 00:20 34.56104 -112.18039 16903 ft 350 kts 205°
2026-04-23 00:21 34.53029 -112.19379 16902 ft 350 kts 205°
2026-04-23 00:21 34.51514 -112.20036 16900 ft 351 kts 205°
2026-04-23 00:21 34.49215 -112.21033 16895 ft 350 kts 205°
2026-04-23 00:21 34.46911 -112.22006 16889 ft 352 kts 201°
2026-04-23 00:22 34.44489 -112.22513 16882 ft 361 kts 189°
2026-04-23 00:22 34.42074 -112.22344 16872 ft 370 kts 176°
2026-04-23 00:22 34.39549 -112.21694 16856 ft 372 kts 174°
2026-04-23 00:22 34.37018 -112.21031 16842 ft 372 kts 174°
2026-04-23 00:23 34.34485 -112.20375 16828 ft 372 kts 174°
2026-04-23 00:23 34.31955 -112.19726 16826 ft 372 kts 174°
2026-04-23 00:23 34.29419 -112.19075 16826 ft 372 kts 174°
2026-04-23 00:23 34.26881 -112.18425 16828 ft 373 kts 174°
2026-04-23 00:24 34.24346 -112.17773 16821 ft 373 kts 174°
2026-04-23 00:24 34.21820 -112.17120 16818 ft 373 kts 174°
2026-04-23 00:24 34.19276 -112.16460 16818 ft 373 kts 174°
2026-04-23 00:24 34.16744 -112.15806 16818 ft 372 kts 174°
2026-04-23 00:25 34.14250 -112.15162 16753 ft 361 kts 174°
2026-04-23 00:25 34.11839 -112.14534 16623 ft 349 kts 174°
2026-04-23 00:25 34.09506 -112.13923 16470 ft 334 kts 174°
2026-04-23 00:25 34.07323 -112.13169 16071 ft 329 kts 168°
2026-04-23 00:26 34.05158 -112.12288 15553 ft 325 kts 168°
2026-04-23 00:26 34.03043 -112.11426 15080 ft 321 kts 167°
2026-04-23 00:26 34.00906 -112.10558 14552 ft 318 kts 167°
2026-04-23 00:26 33.98849 -112.09721 14088 ft 315 kts 167°
2026-04-23 00:27 33.96785 -112.08883 13642 ft 311 kts 167°
2026-04-23 00:27 33.94755 -112.08058 13188 ft 307 kts 167°
2026-04-23 00:27 33.92730 -112.07237 12764 ft 305 kts 167°
2026-04-23 00:27 33.90725 -112.06426 12347 ft 304 kts 167°
2026-04-23 00:28 33.88730 -112.05619 11932 ft 301 kts 166°
2026-04-23 00:28 33.86751 -112.04817 11519 ft 299 kts 166°
2026-04-23 00:28 33.84786 -112.04018 11108 ft 297 kts 166°
2026-04-23 00:28 33.82835 -112.03225 10699 ft 294 kts 166°
2026-04-23 00:29 33.81166 -112.02548 10350 ft 292 kts 166°
2026-04-23 00:29 33.79214 -112.01759 9947 ft 289 kts 166°
2026-04-23 00:29 33.77312 -112.00991 9519 ft 287 kts 165°
2026-04-23 00:29 33.76063 -112.00486 9252 ft 286 kts 166°
2026-04-23 00:30 33.75877 -112.00411 9212 ft 286 kts 166°
2026-04-23 00:30 33.74830 -111.99986 9399 ft 277 kts 166°
2026-04-23 00:30 33.72943 -111.99225 8933 ft 286 kts 165°
2026-04-23 00:30 33.71241 -111.98535 8836 ft 285 kts 165°
2026-04-23 00:31 33.69615 -111.97876 8722 ft 285 kts 166°
2026-04-23 00:31 33.67755 -111.97125 8603 ft 278 kts 165°
2026-04-23 00:31 33.67008 -111.96827 8546 ft 273 kts 166°
2026-04-23 00:31 33.65969 -111.96332 8468 ft 267 kts 161°
2026-04-23 00:32 33.64789 -111.95709 8220 ft 267 kts 160°
2026-04-23 00:32 33.63081 -111.94907 8089 ft 260 kts 165°
2026-04-23 00:32 33.61343 -111.94242 7534 ft 266 kts 167°
2026-04-23 00:32 33.59567 -111.93617 6910 ft 269 kts 167°
2026-04-23 00:33 33.57760 -111.92976 6284 ft 270 kts 167°
2026-04-23 00:33 33.55949 -111.92307 5635 ft 272 kts 166°
2026-04-23 00:33 33.54213 -111.91406 4985 ft 278 kts 146°
2026-04-23 00:33 33.53018 -111.89593 4350 ft 285 kts 112°
2026-04-23 00:34 33.52754 -111.87287 4087 ft 273 kts 90°
2026-04-23 00:34 33.52765 -111.85206 4028 ft 254 kts 90°
2026-04-23 00:34 33.52795 -111.83171 4005 ft 233 kts 89°
2026-04-23 00:34 33.52621 -111.81315 4021 ft 218 kts 115°
2026-04-23 00:35 33.51735 -111.79956 4018 ft 205 kts 148°
2026-04-23 00:35 33.50471 -111.79328 4016 ft 194 kts 177°
2026-04-23 00:35 33.49150 -111.79470 4023 ft 186 kts 200°
2026-04-23 00:35 33.47926 -111.79908 4018 ft 186 kts 201°
2026-04-23 00:36 33.46675 -111.80353 4019 ft 184 kts 201°
2026-04-23 00:36 33.45483 -111.80891 4011 ft 182 kts 215°
2026-04-23 00:36 33.44571 -111.81912 3930 ft 182 kts 236°
2026-04-23 00:36 33.44094 -111.83270 3690 ft 181 kts 259°
2026-04-23 00:37 33.44053 -111.84780 3463 ft 182 kts 269°
2026-04-23 00:37 33.44056 -111.86290 3224 ft 181 kts 270°
2026-04-23 00:37 33.44060 -111.87792 2986 ft 175 kts 269°
2026-04-23 00:37 33.44063 -111.89216 2762 ft 167 kts 269°
2026-04-23 00:38 33.44066 -111.90554 2556 ft 158 kts 268°
2026-04-23 00:38 33.44069 -111.91836 2360 ft 144 kts 271°
2026-04-23 00:38 33.44070 -111.92960 2184 ft 131 kts 270°
2026-04-23 00:38 33.44072 -111.94028 2032 ft 127 kts 268°
2026-04-23 00:39 33.44074 -111.95059 1877 ft 127 kts 268°
2026-04-23 00:39 33.44076 -111.96102 1721 ft 125 kts 271°
2026-04-23 00:39 33.44078 -111.97137 1539 ft 122 kts 271°
2026-04-23 00:39 33.44080 -111.98165 1373 ft 123 kts 271°
2026-04-23 00:40 33.44081 -111.99176 1197 ft 122 kts 271°
2026-04-23 00:40 33.44082 -112.00163 1126 ft 110 kts 270°
2026-04-23 00:40 33.44084 -112.00769 1123 ft 29 kts 270°
2026-04-23 00:40 33.44085 -112.00901 1124 ft 12 kts 271°
2026-04-23 00:41 33.44082 -112.01011 1125 ft 15 kts 260°
2026-04-23 00:41 33.44009 -112.01084 1120 ft 14 kts 176°
2026-04-23 00:41 33.43974 -112.00993 1124 ft 14 kts 89°
2026-04-23 00:41 33.43975 -112.00866 1124 ft 16 kts 89°
2026-04-23 00:42 33.43974 -112.00724 1124 ft 18 kts 90°
2026-04-23 00:42 33.43973 -112.00570 1121 ft 19 kts 90°
2026-04-23 00:42 33.43974 -112.00402 1122 ft 21 kts 89°
2026-04-23 00:42 33.43976 -112.00224 1124 ft 21 kts 90°
2026-04-23 00:43 33.43974 -112.00117 1124 ft 13 kts 96°
2026-04-23 00:43 33.43901 -112.00074 1123 ft 14 kts 183°
2026-04-23 00:43 33.43797 -112.00076 1120 ft 16 kts 180°
2026-04-23 00:43 33.43721 -112.00075 1119 ft 9 kts 179°
2026-04-23 00:44 33.43667 -112.00076 1122 ft 6 kts 192°
2026-04-23 00:44 33.43651 -112.00110 1124 ft 5 kts 268°
2026-04-23 00:44 33.43651 -112.00121 1124 ft 0 kts 270°